Location: Gandikunta
(16.3784°N, 80.8378°E)
Time: 06:20:11
(UTC+00:00)

Resurs 01 Rocket - Pass Details

Date: 19 May 2025
Orbit: 627 x 637 km, 97.7° (Epoch: 18 June)

Event Time Altitude Azimuth Distance (km) Brightness Sun altitude
Exits shadow 14:13:22 23° 156° (SSE) 1,362 2.9 -16.6°
Maximum altitude 14:16:04 68° 78° (ENE) 680 1.5 -17.2°
Drops below altitude 10° 14:20:24 10° 355° (N) 2,007 4.6 -18.1°
Sets 14:22:36 0° 353° (N) 2,913 5.5 -18.6°
